User: anonymous   Login
Location: Irma
(52.9170°N, 111.2330°W)
Time: 15:33:53
(UTC-06:00)
Language:

Cosmos 1633 Rocket - Orbit

View from above orbital plane
View from above orbital plane
View from above satellite
View from above satellite

Ground track
Ground track

The orbit data is extracted from the following two-line orbital elements,

1 15593U 85020B   18147.53248819  .00000060  00000-0  43485-5 0  9994
2 15593  82.5364 300.4117 0011272 350.3443  80.8719 14.84321979795455
Epoch (UTC): 27 May 2018 12:46:46
Eccentricity: 0.0011272
inclination: 82.5364°
perigee height: 608 km
apogee height: 623 km
right ascension of ascending node: 300.4117°
argument of perigee: 350.3443°
revolutions per day: 14.84321979
mean anomaly at epoch: 80.8719°
orbit number at epoch: 79545

The dashed part of the orbit path shows where the satellite is in the earth's shadow,  

DLR